Flag for Germany Weather past 2 weeks in Pulheim, North Rhine-Westphalia, Germany

Now
55 °F

Refreshingly cool.


Feels Like: 55 °F
Forecast: 38 / 62 °F
Wind: 5 mph from North

Location: Noervenich

Current Time: Apr 19, 2015 at 9:20:33 PM

Latest Report: Apr 19, 2015 at 8:20 PM


Visibility: 4 mi

Pressure: 30.15 "Hg

Humidity: 44%

Dew point: 34 °F

Location of PulheimLocation

Historic Weather in Pulheim — Graph

°F

Pulheim temperature yesterday

Maximum temperature yesterday: 57 °F (at 4:20 PM)
Minimum temperature yesterday: 36 °F (at 6:20 AM)
Average temperature yesterday: 47 °F

Past Weeks' High & Low Weather Summary

 TemperatureHumidityPressure
High75 °F (Apr 15, 2:20 PM)100% (Apr 7, 1:20 AM)30.63 "Hg (Apr 7, 1:20 AM)
Low30 °F (Apr 7, 3:20 AM)23% (Apr 10, 6:20 PM)29.92 "Hg (Apr 15, 7:20 PM)
Average50 °F64%30.26 "Hg
* Reported Apr 4 7:20 PM — Apr 19 7:20 PM, Pulheim, Weather by CustomWeather, © 2015

Note: Actual official high and low records may vary slightly from our data, if they occured in-between our weather recording intervals... More about our weather records

Advertising

Pulheim weather history for previous 24 hours

 ConditionsComfort  
Time TempWeatherWind HumidityBarometerVisibility
7:20 PM
Sun, Apr 19
59 °FPassing clouds.2 mph36%30.12 "HgN/A
6:20 PM61 °FScattered clouds.3 mph31%30.12 "HgN/A
5:20 PM61 °FPartly sunny.1 mph34%30.12 "HgN/A
4:20 PM59 °FPartly sunny.3 mph34%30.12 "HgN/A
3:20 PM59 °FPartly sunny.5 mph34%30.12 "HgN/A
2:20 PM57 °FPartly sunny.3 mph36%30.15 "HgN/A
1:20 PM54 °FPartly sunny.2 mph44%30.15 "HgN/A
12:20 PM52 °FPartly sunny.2 mph54%30.15 "Hg4 mi
11:20 AM50 °FCool.1 mph58%30.15 "Hg4 mi
10:20 AM46 °FCool.1 mph71%30.18 "Hg4 mi
9:20 AM43 °FQuite cool.No wind76%30.18 "Hg4 mi
8:20 AM39 °FChilly.No wind81%30.18 "Hg3 mi
7:20 AM34 °FChilly.2 mph87%30.18 "Hg3 mi
6:20 AM34 °FChilly.2 mph87%30.18 "Hg3 mi
5:20 AM36 °FChilly.1 mph81%30.18 "Hg3 mi
4:20 AM39 °FChilly.1 mph70%30.18 "Hg3 mi
3:20 AM37 °FChilly.No wind75%30.21 "Hg3 mi
2:20 AM36 °FChilly.2 mph75%30.24 "Hg3 mi
1:20 AM39 °FChilly.1 mph70%30.24 "Hg5 mi
12:20 AM43 °FQuite cool.No wind61%30.24 "Hg3 mi
11:20 PM
Sat, Apr 18
46 °FCool.1 mph53%30.27 "Hg3 mi
10:20 PM48 °FCool.1 mph50%30.24 "Hg3 mi
9:20 PM48 °FCool.3 mph50%30.24 "Hg4 mi
Weather by CustomWeather, © 2015

See weather overviewHow to use our weather pages